Simultaneous Nadir Overpasses (SNOs) Predictions

Prediction of SNOs between NPP and LANDSAT-9 Satellite Orbit:

Table of predicted SNOs for the next 14.0 days since TLE Epoch: 3/23/2024
Index Date (NPP) Time (NPP) Lat,Lon (NPP) SZA (NPP ) Date (LANDSAT-9) Time (LANDSAT-9) Lat,Lon (LANDSAT-9) SZA (LANDSAT-9 ) Distance(km) Time Diff (sec)
1 03/23/2024 14:16:08 -70.21, 142.22 111.18 03/23/2024 14:17:17 -70.23, 142.23 111.18 2.22 69
2 03/23/2024 15:06:53 70.13, -50.35 68.72 03/23/2024 15:06:44 70.12, -50.28 68.72 2.77 9
3 03/23/2024 15:57:30 -69.79, 117.48 111.65 03/23/2024 15:56:17 -69.84, 116.97 111.57 20.82 73
4 03/26/2024 06:33:05 -70.18,-101.98 112.27 03/26/2024 06:33:44 -70.20,-101.92 112.26 3.22 39
5 03/26/2024 07:23:49 70.05, 65.53 67.58 03/26/2024 07:23:12 70.04, 65.49 67.58 1.92 37
6 03/28/2024 21:59:26 70.56,-154.14 67.09 03/28/2024 22:00:37 70.45,-153.30 66.95 33.21 71
7 03/28/2024 22:50:01 -70.11, 13.89 113.40 03/28/2024 22:50:11 -70.12, 13.86 113.38 2.13 10
8 03/28/2024 23:40:46 70.03,-178.69 66.52 03/28/2024 23:39:38 70.01,-178.66 66.50 2.95 68
9 03/31/2024 14:16:16 70.19, -37.79 65.66 03/31/2024 14:17:06 70.21, -37.76 65.67 2.75 50
10 03/31/2024 15:06:58 -70.10, 129.66 114.45 03/31/2024 15:06:36 -70.10, 129.72 114.45 2.48 22
11 03/31/2024 15:57:25 69.07, -61.54 64.48 03/31/2024 15:56:19 69.10, -63.99 64.59 97.14 66
12 04/03/2024 05:42:43 -71.10, -90.82 114.41 04/03/2024 05:43:49 -71.02, -88.30 114.57 91.45 66
13 04/03/2024 06:33:11 70.14, 78.03 64.58 04/03/2024 06:33:30 70.14, 78.03 64.57 0.81 19
14 04/03/2024 07:23:53 -70.05,-114.51 115.53 04/03/2024 07:23:00 -70.03,-114.48 115.55 2.61 53
15 04/05/2024 21:59:22 -70.17, 26.44 116.40 04/05/2024 22:00:27 -70.19, 26.36 116.39 3.51 65
16 04/05/2024 22:50:07 70.11,-166.16 63.52 04/05/2024 22:49:53 70.12,-166.09 63.53 2.86 14
17 04/05/2024 23:40:41 -69.60, 1.93 117.03 04/05/2024 23:39:30 -69.64, 0.87 116.95 41.34 71



Historial Predications of SNOs between NPP and LANDSAT-9
